Showing default

ZHANGHENG 1, 43194

Orbit data source: Space-Track

ZHANGHENG 1, 43194 is a payload satellite owned by CAS (CN) in SSO that was launched on Fri, 02 Feb 2018 UTC via a CHANG ZHENG 2D launch vehicle from the Jiuquan Satellite Launch Center, China (JSC). Payload-class satellites include a variety of spacecraft equipped with specific instruments for various scientific and technological missions. These include communications satellites like Starlink; space stations such as the ISS; scientific satellites like the Hubble; Earth observation satellites from companies like Planet Labs, Umbra, and HawkEye 360; GPS; miniature CubeSats for education and research; and military/defense satellites.

Loading next visibility...
Identifier
43194, 2018-015C
Orbit
SSO
Country
Flag of CNCN / PRC
Related business
Manufacturer
DFH
Mission
Operational Civil Science
Bus & Motor
CAST-2000, AOCS
Mass
730 kg wet, ~700 kg dry
Launch date (UTC)
2018-02-02 (8 years ago)
Launch vehicle
CHANG ZHENG 2D
Launch site
Jiuquan Satellite Launch Center, China (JSC)
Object type
Payload
Rocket body
Debris
Shape & HBR
Box + 2 Pan, 2.0 m
Radar Cross Section
2.715 m², Large (>1 m²)

Expand to show TLE details & history
Last TLE update: 15 hours ago

TLE from 15 hours ago
0 ZHANGHENG 1
1 43194U 18015C   25287.91857979  .00012400  00000-0  56769-3 0  9998
2 43194  97.6634  84.0805 0017252  57.5143 302.7756 15.20516997427362
Epoch: 2025-10-14T22:02Z
TLE epoch observation values (Epoch: 2025-10-14T22:02:45.293Z)
Latitude
-0.00009°
Longitude
89.69168°
Altitude
500.949 km
Speed
7.617 km/s
True Right ascension
05h 36m 19s
True Declination
0° 00' 00"
Sunlit
Object was in full shadow at epoch
Visualization orbit readout
Latitude
Unknown
Longitude
Unknown
Altitude
Unknown
Speed
Unknown
Apparent Right ascension
Unknown
Apparent Declination
Unknown
Sunlit
N/A
Visualization observer readout
Local Sidereal Time
07:55:19
Azimuth
Unknown
Elevation
Unknown
Doppler factor
Unknown
Orbital elements
Apogee altitude
513.125 km
Perigee altitude
489.388 km
Semi-major axis
6,879.393 km
Eccentricity
0.00173
Inclination
97.6634°
RAAN
84.0805°
Arg. of periapsis
57.5143°
True anomaly
302.60919°
Mean anomaly
302.7756°
Eccentric anomaly
302.69241°
Mean motion
3.8038 °/min
Orbital period
94.64 mins
BSTAR
0.00056769
Loading maneuver chart data...
Computing Atmospheric mass density...
Loading historical data...
Loading historical data...
Loading historical data...
Loading historical data...
Loading historical data...
Loading historical data...
Loading historical data...

Documentation

Showing up to 5 results
|